Погода в Луначарском

Россия / Самарская область     53°40′13″N   49°04′11″E
темп.,
°C
ветер,
м/с
пор.,
м/с
влажн.,
%
обл.,
%
осадки,
мм/ч
давл.,
гПа
погр.,
м
28 июня, вт
вт2801:00+18сз46874 0.0 101380
04:00+16с58945 0.0 1013254
07:00+14ссв688618 0.0 1015515
10:00+15ссв68620 0.0 1016869
13:00+16ссв57520 0.0 10171339
16:00+17с675572 0.0 10171287
19:00+16ссв67645 0.0 10181197
22:00+13ссв46625 0.0 1019593
29 июня, ср
ср2901:00+12ссз35715 0.0 1019178
04:00+11ссз35764 0.0 1019218
07:00+12ссз57735 0.0 1020549
10:00+14с786513 0.0 10201096
13:00+16с685613 0.0 10201444
16:00+18ссз57545 0.0 10181051
19:00+17ссз58625 0.0 1017308
22:00+14зсз45700 0.0 1017118
30 июня, чт
чт3001:00+13зсз35730 0.0 101693
04:00+13зсз4771100 0.0 1015141
07:00+14зсз596993 0.0 1014313
10:00+18сз686098 0.0 1013592
13:00+19ссз7951100 0.0 10121048
16:00+19ссз7105593 0.0 10111012
19:00+16с7106766 0.1 1012810
22:00+14с6968100 0.3 1013794
1 июля, пт
пт101:00+13с8116687 0.0 1014771
04:00+11с710720 0.0 1015630
07:00+12с912730 0.0 1016857
10:00+14с9116224 0.0 10161364
13:00+16с81060100 0.0 10161709
16:00+17с696189 0.0 10171409
19:00+17ссз366758 0.1 1016248
22:00+15сз36685 0.1 1017153
2 июля, сб
сб201:00+14зсз47725 0.0 1016143
04:00+13зсз45715 0.0 1016123
07:00+15сз37685 0.0 1016264
10:00+19ссз466293 0.0 1015310
13:00+18с3467100 0.0 1015208
16:00+20сз246463 0.0 1014306
19:00+20ю336896 0.0 101399
22:00+17зюз2386100 0.4 101367